This is the latest recevied weather packets stored in our database for station/object K5NOC-12. If no packets are shown the sender has not sent any weather packets the latest 10 day(s).
| Time | Temp. | Humidity | Pressure | Rain* | Wind** | Luminosity | Snow |
|---|---|---|---|---|---|---|---|
| 1788033869 | 36.11° C | 29% | 1017.9 hPa | 0 mm | - | - | - |
| 1788032969 | 35.56° C | 28% | 1018.2 hPa | 0 mm | - | - | - |
| 1788032069 | 36.11° C | 28% | 1018.3 hPa | 0 mm | - | - | - |
| 1788031169 | 35.56° C | 29% | 1018.4 hPa | 0 mm | - | - | - |
| 1788030269 | 35° C | 30% | 1018.6 hPa | 0 mm | - | - | - |
| 1788029369 | 35° C | 31% | 1018.9 hPa | 0 mm | - | - | - |
| 1788028469 | 34.44° C | 31% | 1019.2 hPa | 0 mm | - | - | - |
| 1788027569 | 34.44° C | 31% | 1019.4 hPa | 0 mm | - | - | - |
| 1788026669 | 33.89° C | 33% | 1019.8 hPa | 0 mm | - | - | - |
| 1788025768 | 33.33° C | 34% | 1020 hPa | 0 mm | - | - | - |
| 1788024868 | 33.33° C | 35% | 1020.1 hPa | 0 mm | - | - | - |
| 1788023968 | 32.78° C | 36% | 1020.3 hPa | 0 mm | - | - | - |
| 1788023068 | 32.78° C | 37% | 1020.5 hPa | 0 mm | - | - | - |
| 1788022168 | 32.22° C | 38% | 1020.5 hPa | 0 mm | - | - | - |
| 1788021268 | 31.67° C | 38% | 1020.6 hPa | 0 mm | - | - | - |
| 1788020368 | 31.67° C | 40% | 1020.7 hPa | 0 mm | - | - | - |
| 1788019468 | 30.56° C | 41% | 1020.7 hPa | 0 mm | - | - | - |
| 1788018568 | 30° C | 44% | 1020.8 hPa | 0 mm | - | - | - |
| 1788017668 | 29.44° C | 47% | 1020.9 hPa | 0 mm | - | - | - |
| 1788016767 | 28.89° C | 48% | 1021 hPa | 0 mm | - | - | - |
| 1788015867 | 27.78° C | 52% | 1021 hPa | 0 mm | - | - | - |
| 1788014967 | 26.67° C | 55% | 1021 hPa | 0 mm | - | - | - |
| 1788014067 | 26.11° C | 57% | 1021 hPa | 0 mm | - | - | - |
| 1788013137 | 25° C | 60% | 1021.2 hPa | 0 mm | - | - | - |
| 1788012237 | 24.44° C | 62% | 1021.3 hPa | 0 mm | - | - | - |
* Rain latest hour (hover to see other rain measurements)
** Current wind speed in m/s (hover to see current wind gust speed)